471P/2010 YK3 (2023)

Japanese version
Home page
Updated on May 15, 2024

---------------------------------------------------------------------

* Profile

Designation 471P/2023 KF3
Discovery Date May 24, 2023
Magnitude 20.6 mag
Discoverer Mt. Lemmon

* Pictures

* Orbital Elements

Epoch 2024 Mar. 31.0 TT = JDT 2460400.5
T 2023 Dec. 20.26411 TT                                 Rudenko
q   2.1231495            (2000.0)            P               Q
n   0.07220182     Peri.   94.96853     +0.94609250     -0.31353203
a   5.7117688      Node   283.32146     +0.25409324     +0.87407280
e   0.6282851      Incl.    4.79143     +0.20086215     +0.37107198
P  13.7
>From 908 observations 1996 June 23-2024 Mar. 6, mean residual 0".5.

* Magnitudes Graph

        m1 = 4.5 + 5 log d + 30.0 log r

---------------------------------------------------------------------

The orbital elements are published on M.P.E.C. 2024-G193.
The magnitudes graphs are made with Comet for Windows.

---------------------------------------------------------------------

Copyright(C) Seiichi Yoshida (comet@aerith.net). All rights reserved.